Location: Navarre
(52.9016°N, 113.4144°W)
Time: 09:01:05
(UTC+00:00)

ISS - Visible Passes

Search period start: 04 December 2021 00:00
Search period end: 14 December 2021 00:00
Orbit: 417 x 423 km, 51.6° (Epoch: 04 December)

Date Brightness Start Highest point End Pass type
(mag) Time Alt. Az. Time Alt. Az. Time Alt. Az.
04 Dec -2.4 01:30:35 10° W 01:33:43 35° SSW 01:35:03 25° SSE visible
05 Dec -2.7 00:43:09 10° W 00:46:24 45° SSW 00:49:41 10° SE visible
05 Dec -1.0 02:20:43 10° WSW 02:22:39 14° SW 02:22:58 14° SSW visible
06 Dec -1.2 01:32:51 10° W 01:35:24 20° SW 01:37:57 10° SSE visible
07 Dec -1.6 00:45:10 10° W 00:48:05 27° SSW 00:51:00 10° SSE visible
07 Dec -2.0 23:57:34 10° W 00:00:42 35° SSW 00:03:49 10° SE visible
09 Dec -0.6 00:47:33 10° WSW 00:49:27 14° SW 00:51:20 10° S visible
09 Dec -0.7 23:59:31 10° W 00:02:04 20° SW 00:04:36 10° SSE visible
